DELTA 1 DEB

Satellite information

Favourite Embed

Satellite Type and Status

DEBRISIN ORBIT

Key statistics

Satellite DELTA 1 DEB at a glance.

Uptime

18983

Days in orbit

Revolutions

≈ 12.8

Per day

Orbit

SSO

Sun Synchronous Orbit

Inclination

102.2

Latest

Satellite identification and parameters

Extended collection of information and parameters for DELTA 1 DEB.

Object identification

Identified? True

Debris? True

Object name: DELTA 1 DEB

International designator: 1973-086ER

Object number (NORAD): 7180

Object ID (CCSDS): 7180

Country: UNITED STATES OF AMERICA (US)

Current information (Y/N): Y

RCS size: SMALL

Orbital parameters

Period: 112.575 minutes

Inclination: 102.2397 deg

SMA: 7723.043 km

Apoapsis: 1462.265 km

Periapsis: 1227.551 km

RAAN: 21.2165 deg

Eccentricy: 0.01519568

Argument of periapsis: 246.4651 deg

Mean anomaly: 234.8829 deg

Mean motion: 12.79145932 rev/day

Mean motion (dot): 0.00000715 rev/day2

B* drag term: 0.0032488166 1/REarth

Two-line elements (TLE)

Creation date: Oct. 27, 2025, 2:46 a.m.

Reference frame: TEME

Reference center: EARTH

Epoch: Oct. 26, 2025, 6:53 p.m. UTC

TLE line 0: 0 DELTA 1 DEB

TLE line 1: 1 07180U 73086ER 25299.78735163 .00000715 00000-0 32488-2 0 9997

TLE line 2: 2 07180 102.2397 21.2165 0151957 246.4651 234.8829 12.79145932410841

Live tracking on map

Real-time ground track for satellite DELTA 1 DEB.

In-orbit conjunctions

A list of the most updated potential collisions computed for object DELTA 1 DEB.

Target Orbit TCA Probability of collision Miss distance Type
COSMOS 2246 LEO 2025-02-19 05:40:12 0.0001424063 212.0 (m) PAYLOAD

Associated space launch

Meteorological satellite using radiometric imaging

DELTA 1 DEB was lifted into orbit during the mission ‘Delta 0300 | NOAA 3’, on board a Delta 0300 space rocket.

The launch took place on Nov. 6, 1973, 5:02 p.m. from Space Launch Complex 2W.

For more information about the launch, click the button.

Launch to space Delta 0300 | NOAA 3
Delta 0300 | NOAA 3

Agency: N/A

Status: Launch Successful

Launch date: Nov. 6, 1973, 5:02 p.m. UTC

Rocket: Delta 0300

Launch pad: Space Launch Complex 2W

Location: Vandenberg SFB, CA, USA

...

Latest news about this satellite

There are no fresh news available about this satellite. Check back as we update our databases every day.


Newsletter sign-up

Weekly statistics, charts and insights to help you stay on top of the space industry.